Temp
-2 -2 -3 -3 -3 -3 -3 -3 -3 -3 -4 -4 -4 -5 -5 -6 -6 -7 -7 -8 -9 -9 -10 -10 -10 -11 -11 -11 -12 -12 -12 -12 -12 -12 -12 -13 -13 -13 -13 -13 -14 -14
-2 -2 -3 -3 -3 -3 -3 -3 -3 -3 -4 -4 -4 -5 -5 -6 -6 -7 -8 -9 -9 -9 -10 -10 -11 -11 -11 -11 -12 -12 -12 -12 -12 -13 -13 -13 -13 -13 -13 -14 -14 -14
-2 -2 -3 -3 -3 -3 -3 -3 -3 -4 -4 -4 -4 -5 -5 -6 -6 -7 -8 -9 -9 -10 -10 -10 -11 -11 -11 -12 -12 -12 -12 -12 -12 -13 -13 -13 -13 -13 -14 -14 -14 -14
-2 -2 -3 -3 -3 -3 -3 -3 -4 -4 -4 -5 -5 -5 -5 -6 -6 -7 -8 -9 -9 -10 -10 -10 -11 -11 -12 -12 -12 -12 -12 -13 -13 -13 -13 -13 -13 -14 -14 -14 -14 -14
-2 -3 -3 -3 -3 -3 -4 -4 -4 -4 -5 -5 -5 -6 -6 -6 -7 -8 -9 -9 -10 -10 -10 -11 -11 -11 -12 -12 -12 -12 -13 -13 -13 -13 -13 -13 -14 -14 -14 -14 -14 -15
-2 -3 -3 -3 -3 -4 -4 -4 -4 -5 -5 -5 -6 -6 -6 -6 -7 -8 -9 -9 -10 -10 -10 -11 -11 -11 -12 -12 -12 -12 -12 -13 -13 -13 -13 -13 -14 -14 -14 -15 -15 -15
-2 -2 -3 -3 -4 -4 -4 -5 -5 -5 -5 -6 -6 -6 -7 -7 -7 -8 -9 -9 -10 -10 -10 -11 -11 -11 -12 -12 -12 -12 -13 -13 -13 -13 -13 -14 -14 -14 -14 -15 -15 -15
-2 -3 -3 -3 -4 -4 -5 -5 -5 -6 -6 -6 -6 -7 -7 -7 -8 -8 -9 -9 -10 -10 -11 -11 -11 -11 -12 -12 -12 -13 -13 -13 -13 -13 -14 -14 -14 -14 -14 -15 -15 -16
-2 -3 -3 -4 -4 -5 -5 -5 -5 -6 -6 -6 -7 -7 -7 -7 -8 -9 -9 -10 -10 -10 -11 -11 -11 -12 -12 -12 -13 -13 -13 -13 -13 -14 -14 -14 -14 -14 -15 -15 -15 -16
-2 -3 -3 -4 -4 -5 -5 -5 -6 -6 -7 -7 -7 -8 -8 -8 -8 -9 -9 -10 -10 -11 -11 -11 -12 -12 -12 -13 -13 -13 -13 -13 -14 -14 -14 -14 -14 -15 -15 -15 -15 -16
-2 -3 -3 -4 -4 -5 -5 -5 -6 -7 -7 -7 -8 -8 -8 -8 -9 -9 -10 -10 -11 -11 -11 -12 -12 -12 -13 -13 -13 -13 -14 -14 -14 -14 -15 -15 -15 -15 -15 -15 -16 -16
-3 -3 -4 -4 -5 -5 -5 -6 -6 -7 -7 -8 -8 -8 -8 -9 -9 -9 -10 -10 -11 -11 -12 -12 -12 -13 -13 -13 -13 -14 -14 -14 -15 -15 -15 -15 -15 -16 -16 -16 -16 -16
-3 -3 -4 -4 -5 -5 -6 -6 -7 -7 -8 -8 -8 -9 -9 -9 -9 -9 -10 -10 -11 -11 -12 -12 -13 -13 -13 -14 -14 -14 -14 -15 -15 -15 -16 -16 -16 -16 -16 -16 -17 -17
-3 -4 -4 -5 -5 -6 -6 -7 -7 -8 -8 -8 -9 -9 -9 -9 -9 -9 -10 -11 -11 -12 -12 -13 -13 -14 -14 -14 -15 -15 -15 -16 -16 -16 -16 -16 -16 -16 -17 -17 -17 -17
-4 -4 -5 -5 -6 -6 -7 -7 -8 -8 -9 -9 -9 -9 -9 -9 -9 -10 -10 -11 -12 -12 -13 -13 -14 -14 -14 -15 -15 -15 -16 -16 -16 -17 -17 -17 -17 -17 -17 -17 -18 -18
-5 -5 -6 -6 -7 -7 -7 -8 -8 -9 -9 -9 -9 -9 -9 -9 -10 -10 -11 -11 -12 -12 -13 -13 -14 -14 -14 -15 -15 -16 -16 -16 -17 -17 -17 -17 -17 -18 -18 -18 -18 -18
-5 -6 -6 -7 -7 -8 -8 -8 -9 -9 -9 -10 -9 -9 -9 -10 -10 -11 -11 -12 -12 -13 -13 -14 -14 -14 -14 -15 -15 -16 -16 -16 -17 -17 -17 -17 -17 -17 -18 -18 -18 -18
-6 -7 -7 -7 -8 -8 -9 -9 -9 -10 -10 -10 -10 -9 -10 -10 -11 -11 -12 -12 -13 -13 -14 -14 -14 -14 -15 -15 -16 -16 -16 -16 -16 -17 -17 -17 -17 -17 -17 -18 -18 -18
-7 -7 -8 -8 -9 -9 -9 -9 -10 -10 -10 -10 -10 -10 -10 -11 -11 -12 -12 -13 -13 -14 -14 -14 -14 -15 -15 -16 -16 -16 -16 -16 -16 -16 -16 -16 -16 -17 -17 -17 -18 -18
-7 -8 -8 -9 -9 -9 -10 -10 -10 -10 -10 -10 -10 -11 -11 -12 -12 -13 -13 -13 -14 -14 -14 -15 -15 -15 -16 -16 -16 -16 -16 -16 -16 -16 -16 -16 -16 -16 -17 -17 -17 -17
-8 -8 -9 -9 -10 -10 -10 -10 -10 -10 -10 -10 -11 -11 -12 -12 -12 -13 -13 -14 -14 -14 -15 -15 -15 -15 -16 -17 -17 -17 -16 -16 -16 -16 -16 -16 -16 -16 -17 -17 -17 -17
-9 -9 -9 -10 -10 -10 -11 -11 -10 -10 -11 -11 -11 -12 -12 -13 -13 -14 -14 -14 -15 -15 -15 -16 -16 -16 -17 -17 -17 -17 -16 -16 -16 -16 -16 -16 -17 -17 -17 -17 -17 -17
-9 -9 -10 -10 -11 -11 -11 -11 -11 -11 -11 -11 -12 -12 -13 -13 -14 -14 -15 -15 -15 -15 -16 -16 -16 -17 -17 -18 -17 -17 -17 -16 -16 -17 -17 -17 -17 -17 -18 -18 -18 -18
-9 -10 -10 -11 -11 -11 -11 -11 -11 -11 -11 -12 -12 -13 -14 -14 -14 -15 -15 -15 -16 -16 -16 -17 -17 -17 -18 -18 -18 -17 -17 -17 -17 -17 -17 -17 -18 -18 -18 -18 -18 -18
-10 -10 -10 -11 -11 -11 -10 -11 -11 -11 -12 -12 -13 -14 -14 -15 -15 -15 -16 -16 -16 -17 -17 -17 -18 -18 -18 -18 -18 -18 -17 -17 -17 -18 -18 -18 -18 -18 -18 -18 -19 -19
-10 -10 -11 -11 -11 -11 -11 -11 -12 -12 -13 -13 -14 -14 -15 -16 -16 -16 -17 -17 -17 -17 -18 -18 -18 -19 -18 -18 -18 -18 -18 -18 -18 -18 -18 -18 -18 -18 -19 -19 -19 -19
Height
813 815 816 817 819 820 821 822 823 824 826 827 828 829 830 832 834 836 837 839 840 842 843 844 845 845 846 847 848 849 850 850 850 850 850 850 850 850 850 850 850 850
806 807 809 810 811 812 813 815 816 818 819 820 822 824 826 828 829 831 833 835 836 838 839 840 841 841 842 843 845 846 846 846 846 846 846 846 847 847 846 846 847 847
798 800 801 802 803 804 806 808 811 812 814 815 816 818 820 822 825 827 829 831 832 834 835 836 837 838 838 839 841 842 842 843 843 843 843 843 843 843 843 843 843 843
792 792 793 794 795 798 800 803 804 806 807 808 810 813 815 817 820 822 824 826 828 830 831 832 833 834 834 836 837 838 839 839 839 839 840 839 839 840 840 840 840 840
787 787 788 789 790 793 795 796 797 798 801 802 805 807 809 812 815 817 820 822 823 825 827 828 829 830 831 832 833 834 835 835 835 836 836 835 836 836 836 836 836 836
781 782 783 784 785 788 789 789 791 793 795 797 800 802 804 807 810 813 815 817 819 821 822 824 825 826 826 828 829 830 831 831 831 832 832 831 832 832 832 832 832 832
775 776 778 779 781 783 784 785 787 789 790 793 795 797 799 802 805 808 810 813 815 816 818 819 820 821 822 823 825 826 826 827 827 828 828 827 828 828 828 828 828 828
769 772 773 775 777 778 779 781 782 784 786 788 791 792 795 797 800 803 806 808 810 812 813 815 816 817 818 819 820 821 822 823 823 823 823 823 824 824 824 824 824 824
765 767 768 769 771 773 774 776 778 780 782 784 786 788 790 793 796 799 801 804 806 807 809 810 811 812 813 814 816 817 817 818 819 819 819 819 819 819 819 820 820 820
760 761 762 764 765 767 769 771 774 776 777 779 781 784 786 789 792 795 797 799 801 803 804 806 807 808 809 810 811 812 813 813 814 814 814 814 814 814 815 815 815 815
755 756 757 758 760 762 764 766 769 771 772 774 777 780 782 785 788 790 793 795 796 798 800 801 802 803 804 806 807 808 808 809 809 810 810 810 810 810 810 811 811 811
750 751 752 753 755 757 760 762 764 766 768 770 773 776 779 781 783 786 788 790 792 794 795 796 798 799 800 801 803 803 804 805 805 805 805 805 805 805 805 806 806 805
746 747 748 750 752 754 756 758 760 762 764 767 770 772 774 777 779 782 784 786 788 789 791 792 793 795 796 797 798 799 800 800 800 801 801 801 800 800 800 800 800 800
742 743 745 747 749 751 753 754 756 759 761 763 766 768 770 773 775 778 780 782 784 785 786 788 789 790 792 793 794 795 795 795 796 796 796 796 796 795 795 795 795 795
740 741 742 744 745 747 749 751 753 756 758 760 762 764 767 770 772 775 777 778 780 781 782 783 784 785 786 788 789 790 790 791 791 792 791 791 791 790 790 790 790 789
737 738 740 741 743 744 746 748 750 752 755 756 759 761 764 767 769 771 773 774 776 777 778 779 780 780 782 783 785 786 786 786 786 786 787 786 786 785 785 784 784 784
735 736 737 738 740 742 743 746 747 749 751 753 756 759 762 764 766 768 769 770 772 773 773 774 775 776 778 780 781 782 782 782 781 781 781 781 780 779 779 778 778 778
732 733 734 736 737 739 741 743 745 746 749 751 754 756 759 761 762 764 765 766 768 768 769 770 771 772 774 776 777 778 778 778 777 776 775 774 774 773 772 773 773 772
730 731 732 733 735 737 738 740 742 744 747 749 752 754 756 758 759 760 761 763 764 764 765 766 767 769 770 772 773 774 774 774 773 772 771 770 769 768 766 767 767 767
728 729 730 732 733 734 736 738 740 743 745 747 750 751 753 754 755 756 757 758 760 760 761 762 763 765 766 768 769 769 770 770 769 768 767 766 765 764 763 762 762 761
726 727 728 730 731 733 735 737 739 741 743 745 747 748 750 751 752 753 754 755 756 757 758 758 759 761 762 763 764 765 765 765 765 764 762 761 760 760 759 758 758 757
724 726 727 728 730 731 733 735 737 739 741 743 744 746 747 748 748 749 750 751 752 753 754 754 755 757 758 759 760 761 761 761 760 759 758 757 756 755 755 754 753 753
723 724 725 727 728 730 732 734 736 737 739 740 742 743 743 744 745 746 747 748 749 749 750 750 750 752 754 755 756 756 757 757 756 755 753 752 751 751 750 749 748 748
722 723 724 725 727 729 730 732 734 735 737 738 739 739 740 741 742 743 743 744 745 745 746 746 746 748 750 750 751 752 752 752 751 750 749 748 747 746 745 744 743 742
721 722 723 724 726 727 729 731 732 733 734 735 736 737 737 738 739 740 740 741 741 741 742 742 742 743 745 746 746 747 748 748 747 746 745 743 742 741 740 739 738 737
720 721 722 723 725 726 728 729 730 731 732 733 733 734 735 735 736 736 737 737 737 737 738 738 738 738 740 741 742 742 743 744 743 742 740 739 738 737 736 735 734 732
Wind_Speed
54 52 49 45 40 39 37 34 33 33 33 32 30 30 31 29 27 25 23 21 20 20 18 18 17 16 15 15 14 15 14 14 15 14 14 14 14 14 14 14 14 14
55 54 51 46 42 43 43 41 38 37 36 35 34 33 31 30 29 26 24 21 21 20 19 18 18 17 16 15 15 15 15 15 16 15 15 15 15 15 15 15 15 16
56 54 53 51 49 49 48 44 39 37 37 37 37 35 32 31 30 27 24 22 21 20 19 19 19 18 18 17 16 16 16 17 17 16 16 16 16 16 16 15 15 16
53 54 54 55 54 51 46 42 38 38 39 39 39 38 35 33 31 28 25 24 22 20 19 19 19 18 18 17 17 18 18 18 18 17 17 17 17 17 17 16 16 16
49 51 52 52 51 47 41 40 42 42 41 40 39 38 37 35 32 29 25 24 23 20 19 19 19 19 18 18 18 18 18 19 18 18 18 18 18 17 17 17 17 17
46 47 49 49 48 43 40 41 44 42 40 40 38 38 38 36 33 30 26 24 23 21 20 20 19 19 18 18 18 19 19 19 19 19 19 20 19 19 18 18 18 19
46 45 46 45 44 41 40 40 40 39 40 40 38 38 38 36 33 30 27 25 23 22 21 20 20 19 19 18 19 20 20 20 19 20 20 21 20 20 20 19 19 20
43 41 41 42 41 40 39 38 37 39 40 39 38 38 38 37 34 30 27 25 23 22 21 21 20 19 19 19 20 21 21 21 20 21 22 22 21 21 21 20 20 21
36 37 39 40 40 39 38 38 38 39 39 39 38 37 36 36 34 30 28 25 23 22 21 21 20 20 20 20 21 22 22 22 21 21 22 23 23 23 22 21 21 21
34 36 38 39 39 39 39 40 39 37 37 39 38 37 36 36 33 31 28 26 24 23 22 21 20 20 20 21 22 23 23 23 23 23 23 23 24 23 23 22 22 22
35 35 37 38 39 40 40 39 38 36 36 38 37 36 36 35 33 30 28 26 25 24 23 22 21 20 21 21 22 22 23 23 23 23 24 24 24 24 24 24 24 24
34 35 37 37 37 38 37 36 36 35 35 36 36 36 35 34 33 31 29 27 26 25 24 23 21 21 21 22 22 22 22 23 23 23 24 24 25 25 25 25 26 26
33 35 35 35 35 36 34 33 34 35 34 35 36 36 35 34 32 30 29 28 26 25 25 24 22 21 22 22 22 22 22 22 23 23 23 24 25 25 26 27 27 27
31 32 32 33 33 32 32 32 33 33 33 33 35 36 36 34 32 29 28 27 26 26 26 25 24 23 24 23 22 22 23 23 23 23 23 24 25 26 26 27 28 29
27 28 29 30 30 30 30 30 31 31 31 32 34 36 35 32 30 28 27 27 27 26 26 26 26 27 27 26 24 25 27 27 27 26 26 26 26 27 28 28 29 32
24 26 27 27 28 29 28 29 29 29 31 32 33 34 32 30 28 27 27 27 27 27 27 28 28 30 30 29 26 26 28 29 30 31 31 30 31 33 34 33 34 37
23 24 25 26 26 27 27 27 28 29 31 32 32 31 29 27 27 27 27 28 27 27 28 29 30 31 31 28 25 24 25 26 28 31 32 34 35 37 38 38 38 39
22 23 24 25 25 26 26 27 28 29 31 31 30 29 27 26 26 27 28 27 27 28 29 29 31 31 29 26 24 24 24 23 24 26 29 32 35 38 41 40 35 33
21 22 23 24 25 25 26 27 28 29 30 29 28 26 25 26 27 27 27 27 27 28 29 30 31 30 29 25 23 24 25 24 24 24 25 27 27 29 33 34 32 29
21 22 23 23 24 25 26 27 28 28 28 27 25 25 25 26 26 27 27 27 27 28 29 30 31 31 29 25 23 25 25 25 25 25 26 26 25 24 25 27 30 30
21 22 22 23 24 25 26 27 27 27 25 24 24 24 25 26 26 27 27 27 27 28 29 31 31 30 28 25 24 25 25 25 25 25 26 26 26 26 26 26 26 26
21 22 22 23 24 25 26 26 26 25 24 23 23 24 24 25 26 26 27 27 27 28 30 31 31 30 27 24 24 25 24 24 23 24 24 25 25 25 24 25 24 22
21 22 23 24 25 26 26 25 24 23 22 22 23 24 24 25 26 27 27 27 28 29 30 31 31 30 27 24 24 23 23 22 21 21 22 23 23 23 23 23 23 23
20 22 23 25 25 25 24 23 22 21 22 22 23 24 25 26 26 26 26 27 28 29 30 30 31 29 26 24 24 23 22 22 20 21 22 22 21 21 21 20 21 24
20 21 23 24 24 23 22 21 20 20 21 22 22 23 24 24 24 25 26 27 28 29 29 29 30 29 27 25 24 22 22 21 20 20 22 21 19 19 19 19 19 22
19 21 23 23 22 20 19 18 19 19 20 21 22 23 23 23 24 25 26 27 27 28 28 28 29 30 28 25 24 23 22 21 20 20 22 22 19 19 20 21 21 21
Wind_Direction
231 230 230 228 227 227 226 223 223 222 221 220 218 220 223 224 223 223 220 218 219 219 218 218 219 219 220 223 227 231 234 237 237 238 238 235 237 239 239 241 242 245
232 231 230 228 227 229 230 228 227 226 225 225 224 224 224 224 224 222 218 215 217 219 218 217 219 219 220 222 225 230 234 236 237 237 236 235 237 240 240 241 241 243
232 231 230 230 230 231 232 231 227 226 227 227 226 225 223 223 222 220 217 215 214 216 216 217 218 219 221 222 225 229 233 237 238 238 237 237 237 240 241 242 243 243
232 231 231 232 232 232 231 229 226 226 227 227 227 225 222 222 221 218 217 216 214 213 215 216 218 219 220 221 225 230 234 237 239 238 238 238 237 238 240 241 243 243
233 233 232 233 233 231 228 227 227 227 227 227 226 223 221 221 220 217 215 214 213 213 213 215 217 218 219 221 224 230 234 237 238 237 237 238 237 237 238 239 241 242
234 234 234 233 233 229 226 227 229 227 227 227 224 222 221 221 219 217 213 212 213 212 213 214 216 218 219 221 225 231 234 237 238 237 237 238 239 238 237 238 240 241
235 234 234 234 232 229 227 228 228 227 227 226 224 222 221 219 217 216 214 212 212 212 214 216 217 218 220 222 227 232 235 238 239 238 238 238 240 240 238 238 239 240
236 234 234 233 231 230 228 227 227 228 228 226 223 222 220 218 216 214 213 212 212 213 215 218 219 220 221 223 228 232 235 237 238 237 238 239 239 239 238 238 239 240
234 232 233 232 230 229 228 228 229 229 228 225 222 220 218 218 216 215 215 214 213 215 216 218 220 221 222 224 228 232 235 237 238 237 238 239 239 240 239 239 240 240
232 232 232 231 229 229 229 230 229 227 226 224 221 218 217 217 216 216 217 217 216 216 218 219 220 221 223 226 229 233 235 237 239 239 239 239 240 240 239 239 240 241
233 231 231 231 229 230 230 229 226 223 223 223 219 217 217 215 214 215 217 217 218 219 220 221 221 222 224 227 231 234 236 239 239 239 239 240 240 240 240 240 240 241
233 231 230 230 229 228 228 226 223 222 221 221 218 215 214 213 214 216 218 220 222 223 223 223 223 224 225 229 232 235 237 239 240 239 240 239 240 241 241 241 241 241
233 231 230 229 227 227 226 223 222 221 220 220 217 214 213 213 215 218 222 224 226 227 228 228 226 224 226 229 232 235 237 239 239 239 240 241 242 243 242 242 242 240
234 232 230 229 227 225 223 221 220 220 219 218 216 214 213 214 217 220 224 227 228 230 232 232 229 227 229 230 232 235 237 238 238 239 241 243 244 245 243 242 241 241
233 231 229 227 225 222 221 220 220 218 216 216 215 214 213 216 221 224 226 228 230 232 233 233 231 232 234 235 237 240 244 245 245 244 245 245 245 247 246 244 244 246
230 229 227 224 222 221 219 218 217 214 214 214 213 213 214 218 223 225 227 230 231 233 234 233 234 237 241 243 243 246 251 254 254 252 250 249 251 252 252 250 250 252
228 227 225 222 221 219 217 215 214 213 213 211 210 212 215 220 224 226 229 232 234 235 236 237 239 243 247 248 245 246 249 253 255 255 254 254 255 256 255 253 254 256
226 225 223 221 219 217 215 213 212 211 210 208 209 213 218 223 226 228 231 234 237 238 239 240 244 248 250 248 245 246 248 250 252 253 252 253 254 255 254 252 251 253
225 223 221 219 217 215 213 212 210 208 207 207 212 217 222 226 229 231 234 237 239 240 241 243 246 250 250 246 246 248 249 250 252 252 252 252 252 252 250 248 248 249
225 223 220 217 215 214 212 210 207 205 207 211 216 221 224 228 231 234 237 239 242 243 244 245 249 252 252 248 246 249 251 253 254 254 254 255 255 252 249 250 252 251
225 222 219 216 214 211 208 206 204 206 210 216 220 224 228 232 235 238 240 243 244 245 245 247 250 253 252 248 247 250 253 255 255 255 256 256 256 255 255 256 255 252
225 221 217 214 210 206 204 203 205 210 215 220 224 228 233 236 239 241 243 244 245 246 246 249 252 253 251 247 248 251 254 256 256 256 257 258 258 257 256 255 253 250
226 220 214 210 206 204 203 205 210 216 221 226 230 233 235 238 240 242 244 245 246 247 248 249 252 253 251 249 250 252 254 256 256 256 257 258 258 257 256 254 252 249
226 220 214 209 206 205 207 211 217 223 228 233 236 237 239 241 243 244 246 247 248 249 249 250 253 255 254 252 252 252 253 255 255 257 258 258 258 258 257 255 253 251
227 221 215 211 210 211 214 220 226 231 236 239 240 240 241 243 245 245 246 248 249 250 250 251 254 257 257 256 254 252 253 254 254 255 257 257 258 259 258 257 255 254
227 221 216 214 215 218 223 229 234 238 240 240 240 241 241 243 244 244 245 247 249 251 253 253 255 259 261 260 257 254 253 253 253 252 254 256 257 257 258 258 256 255